Weather History for KGKJ - September, 2013

Change the Weather History Date:

Saturday, September 7, 2013

  Actual Average Record
Temperature  
Mean Temperature 64 °F -  
Max Temperature 75 °F 76 °F 92 °F (1954)
Min Temperature 52 °F 52 °F 34 °F (1962)
Degree Days  
Heating Degree Days 2    
Growing Degree Days 14 (Base 50)    
Moisture  
Dew Point 52 °F    
Average Humidity 67    
Maximum Humidity 90    
Minimum Humidity 45    
Precipitation  
Precipitation 0.00 in - - ()
Sea Level Pressure  
Sea Level Pressure 30.04 in    
Wind  
Wind Speed 3 mph (SW)    
Max Wind Speed 10 mph    
Max Gust Speed 17 mph    
Visibility 10 miles    
Events Rain    
Averages and records for this station are not official NWS values.
T = Trace of Precipitation, MM = Missing Value Source: NWS Daily Summary

Daily Weather History Graph

Daily Weather History Graph

Search for Another Location

Airport or City:

Trip Planner

Search our weather history database for the weather conditions in past years. The results will help you decide how hot, cold, wet, or windy it might be!

Date:

Astronomy

Sep. 07, 2013 Rise Set
Actual Time 6:53 AM EDT 7:43 PM EDT
Civil Twilight 6:25 AM EDT 8:11 PM EDT
Nautical Twilight 5:51 AM EDT 8:45 PM EDT
Astronomical Twilight 5:16 AM EDT 9:19 PM EDT
Moon 9:08 AM EDT (9/7) 8:38 PM EDT (9/7)
Length of Visible Light 13h 46m
Length of Day
12h 50m
Waxing Crescent, 5% of the Moon is Illuminated
Sep 7
Waxing Crescent
Sep 12
First Quarter
Sep 19
Full
Sep 26
Last Quarter
Oct 4
New

Hourly Weather History & Observations

Time (EDT) Temp. Dew Point Humidity Pressure Visibility Wind Dir Wind Speed Gust Speed Precip Events Conditions
12:53 AM 55.0 °F 46.9 °F 74% 30.14 in 10.0 mi Calm Calm - N/A   Clear
1:53 AM 54.0 °F 46.0 °F 75% 30.13 in 10.0 mi Calm Calm - N/A   Clear
2:53 AM 55.0 °F 43.0 °F 64% 30.13 in 10.0 mi Calm Calm - N/A   Clear
3:53 AM 54.0 °F 43.0 °F 66% 30.11 in 10.0 mi Variable 3.5 mph - N/A   Clear
4:53 AM 52.0 °F 43.0 °F 71% 30.11 in 10.0 mi Calm Calm - N/A   Clear
5:53 AM 52.0 °F 43.0 °F 71% 30.11 in 10.0 mi Calm Calm - N/A   Clear
6:53 AM 54.0 °F 42.1 °F 64% 30.10 in 10.0 mi South 3.5 mph - N/A   Clear
7:53 AM 54.0 °F 43.0 °F 66% 30.11 in 10.0 mi South 5.8 mph - N/A   Clear
8:53 AM 55.9 °F 44.1 °F 64% 30.10 in 10.0 mi SSW 5.8 mph - N/A   Clear
9:53 AM 60.1 °F 48.0 °F 64% 30.09 in 10.0 mi South 4.6 mph - N/A   Clear
10:53 AM 66.0 °F 52.0 °F 60% 30.07 in 10.0 mi SSW 8.1 mph - N/A   Clear
11:53 AM 70.0 °F 51.1 °F 51% 30.07 in 10.0 mi SW 8.1 mph - N/A   Clear
12:53 PM 73.0 °F 52.0 °F 48% 30.04 in 10.0 mi WSW 6.9 mph - N/A   Partly Cloudy
1:53 PM 73.9 °F 51.1 °F 45% 30.03 in 10.0 mi Variable 6.9 mph - N/A   Partly Cloudy
2:53 PM 75.0 °F 53.1 °F 46% 30.00 in 10.0 mi SW 10.4 mph 17.3 mph N/A   Mostly Cloudy
3:53 PM 73.0 °F 55.9 °F 55% 29.99 in 10.0 mi SW 4.6 mph - N/A   Overcast
4:53 PM 73.9 °F 59.0 °F 59% 29.96 in 10.0 mi SW 4.6 mph - 0.00 in   Mostly Cloudy
5:53 PM 73.0 °F 60.1 °F 64% 29.96 in 10.0 mi SW 4.6 mph - N/A   Mostly Cloudy
6:53 PM 72.0 °F 62.1 °F 71% 29.96 in 10.0 mi SW 4.6 mph - 0.00 in   Overcast
7:53 PM 71.1 °F 62.1 °F 73% 29.96 in 10.0 mi WSW 5.8 mph - 0.00 in Rain Light Rain
8:53 PM 69.1 °F 63.0 °F 81% 29.97 in 8.0 mi WSW 4.6 mph - 0.00 in Rain Light Rain
9:53 PM 68.0 °F 64.0 °F 87% 29.96 in 10.0 mi Calm Calm - 0.00 in   Overcast
10:53 PM 66.9 °F 64.0 °F 90% 29.95 in 10.0 mi South 3.5 mph - 0.00 in   Overcast
11:53 PM 66.9 °F 63.0 °F 87% 29.94 in 10.0 mi SSW 4.6 mph - N/A   Overcast